Location: *
(51.0333°S, 178.4667°E)
Time: 16:29:22
(UTC+00:00)

STARLINK-80 - Pass Details

Date: 15 November 2019
Orbit: 491 x 497 km, 53.0° (Epoch: 14 December)

Event Time Altitude Azimuth Distance (km) Brightness Sun altitude
Rises 08:41:53 0° 260° (W) 2,602 8.1 -9.2°
Reaches altitude 10° 08:44:05 10° 257° (WSW) 1,717 7.1 -9.4°
Maximum altitude 08:47:57 66° 173° (S) 554 3.8 -9.8°
Drops below altitude 10° 08:51:49 10° 90° (E) 1,712 5.7 -10.2°
Enters shadow 08:52:36 - 89° (E) 2,022 6.1 -10.3°
